EW6020 Weather Reports


time (UTC)temp
C
wind
direction
speed
KPH
gust
KPH
rain 1hr
cm
rain 24hr
cm
rain mn
cm
humidity
%
barometer
mb
20260901140015 -17 0.0 0.0 0.00 0.00 0.00 1009.6
20260901134512 -17 0.0 0.0 0.00 0.00 0.00 1009.3
20260901133006 -17 0.0 0.0 0.00 0.00 0.00 1009.2
20260901131502 -17 0.0 0.0 0.00 0.00 0.00 1009.3
20260901130058 -17 0.0 0.0 0.00 0.00 0.00 1009.2
20260901124558 -17 0.0 0.0 0.00 0.00 0.00 1009.1
20260901123049 -17 0.0 0.0 0.00 0.00 0.00 1009.2
20260901121547 -17 0.0 0.0 0.00 0.00 0.00 1009.1
20260901120040 12 140 0.0 0.0 0.00 0.00 0.00 92 1009.0
20260901114552 12 150 0.0 1.6 0.00 0.00 0.00 93 1008.9
20260901113038 12 149 1.6 3.2 0.00 0.00 0.00 93 1008.9
20260901111539 12 150 0.0 1.6 0.00 0.00 0.00 91 1008.8
20260901110033 12 150 0.0 1.6 0.00 0.00 0.00 91 1008.7
20260901104533 12 149 1.6 4.8 0.00 0.00 0.00 91 1008.5
20260901103029 12 148 1.6 4.8 0.00 0.00 0.00 90 1008.5
20260901101527 12 146 1.6 8.0 0.00 0.00 0.00 90 1008.5
20260901100027 12 148 4.8 8.0 0.00 0.00 0.00 90 1008.5
20260901094525 12 145 3.2 6.4 0.00 0.00 0.00 90 1008.4
20260901093020 13 148 3.2 6.4 0.00 0.00 0.00 89 1008.4
20260901091518 13 150 3.2 6.4 0.00 0.00 0.00 89 1008.1
20260901090017 13 149 4.8 8.0 0.00 0.00 0.00 89 1008.0
20260901084515 13 149 4.8 9.7 0.00 0.00 0.00 88 1008.1
20260901083014 13 149 3.2 9.7 0.00 0.00 0.00 88 1008.1
20260901081515 13 148 4.8 11.3 0.00 0.00 0.00 87 1008.1
20260901080010 13 153 8.0 14.5 0.00 0.00 0.00 87 1008.1
20260901074511 13 163 9.7 14.5 0.00 0.00 0.00 87 1007.9
20260901073012 13 148 8.0 12.9 0.00 0.00 0.00 86 1007.8
20260901071502 14 148 4.8 12.9 0.00 0.00 0.00 85 1007.8
20260901070059 14 150 8.0 14.5 0.00 0.00 0.00 85 1007.6
20260901064554 15 153 11.3 17.7 0.00 0.00 0.00 84 1007.3
20260901063049 15 150 9.7 16.1 0.00 0.00 0.00 83 1007.3
20260901061545 15 153 9.7 14.5 0.00 0.00 0.00 81 1007.0
20260901060041 16 151 6.4 12.9 0.00 0.00 0.00 79 1006.9
20260901054538 16 149 8.0 11.3 0.00 0.00 0.00 78 1006.8
20260901053031 16 148 6.4 8.0 0.00 0.00 0.00 76 1006.7
20260901051528 17 148 4.8 6.4 0.00 0.00 0.00 74 1006.6
20260901050023 17 177 3.2 6.4 0.00 0.00 0.00 72 1006.4
20260901044519 18 177 6.4 11.3 0.00 0.00 0.00 71 1006.4
20260901043013 18 177 4.8 9.7 0.00 0.00 0.00 69 1006.4
20260901041509 18 178 4.8 11.3 0.00 0.00 0.00 66 1006.1
20260901040004 20 177 6.4 12.9 0.00 0.00 0.00 64 1005.9
20260901034601 21 178 6.4 16.1 0.00 0.00 0.00 61 1005.8
20260901033057 22 177 1.6 8.0 0.00 0.00 0.00 61 1005.4
20260901031552 22 177 4.8 11.3 0.00 0.00 0.00 59 1005.0
20260901030047 23 178 3.2 8.0 0.00 0.00 0.00 55 1004.7
20260901024543 25 178 1.6 9.7 0.00 0.00 0.00 53 1004.6
20260901023037 25 170 6.4 16.1 0.00 0.00 0.00 51 1004.7
20260901021533 26 178 8.0 14.5 0.00 0.00 0.00 47 1004.7
20260901020029 26 178 8.0 16.1 0.00 0.00 0.00 44 1004.7
20260901014524 27 179 11.3 17.7 0.00 0.00 0.00 42 1004.7
20260901013034 27 179 11.3 17.7 0.00 0.00 0.00 40 1004.6
20260901011514 28 178 6.4 17.7 0.00 0.00 0.00 38 1004.7
20260901010010 29 177 9.7 16.1 0.00 0.00 0.00 36 1004.7
20260901004505 28 173 6.4 14.5 0.00 0.00 0.00 36 1004.8
20260901003001 28 172 4.8 11.3 0.00 0.00 0.00 35 1004.7
20260901001559 28 152 6.4 14.5 0.00 0.00 0.00 36 1004.8
20260901000052 28 153 6.4 14.5 0.00 0.00 0.00 36 1004.9
20260831234555 29 148 6.4 14.5 0.00 0.00 0.00 35 1004.9
20260831233043 30 177 0.0 6.4 0.00 0.00 0.00 32 1005.0
20260831231539 29 176 4.8 9.7 0.00 0.00 0.00 31 1005.1
20260831230038 30 176 3.2 9.7 0.00 0.00 0.00 31 1005.1
20260831224530 29 178 1.6 9.7 0.00 0.00 0.00 32 1005.4
20260831223029 28 178 4.8 14.5 0.00 0.00 0.00 33 1005.5
20260831221521 29 174 1.6 8.0 0.00 0.00 0.00 34 1005.7
20260831220017 29 179 3.2 9.7 0.00 0.00 0.00 35 1005.8
20260831214517 28 153 3.2 8.0 0.00 0.00 0.00 37 1005.9
20260831213007 28 174 6.4 9.7 0.00 0.00 0.00 37 1006.0
20260831211510 27 179 1.6 11.3 0.00 0.00 0.00 39 1006.1
20260831210059 27 176 1.6 9.7 0.00 0.00 0.00 40 1006.3
20260831204600 27 176 0.0 9.7 0.00 0.00 0.00 39 1006.5
20260831203106 26 177 0.0 9.7 0.00 0.00 0.00 41 1006.5
20260831201553 26 176 6.4 12.9 0.00 0.00 0.00 42 1006.9
20260831200119 26 177 0.0 4.8 0.00 0.00 0.00 43 1007.1
20260831194538 25 175 1.6 6.4 0.00 0.00 0.00 43 1007.3
20260831193032 24 176 6.4 14.5 0.00 0.00 0.00 46 1007.3
20260831191527 24 177 0.0 9.7 0.00 0.00 0.00 47 1007.6
20260831190031 23 177 1.6 11.3 0.00 0.00 0.00 47 1007.9
20260831184518 23 176 3.2 12.9 0.00 0.00 0.00 50 1007.9
20260831183014 22 177 3.2 9.7 0.00 0.00 0.00 51 1008.1
20260831181510 22 177 3.2 11.3 0.00 0.00 0.00 53 1008.3
20260831180116 21 176 1.6 9.7 0.00 0.00 0.00 54 1008.4
20260831174501 20 178 1.6 9.7 0.00 0.00 0.00 58 1008.6
20260831173103 20 177 8.0 11.3 0.00 0.00 0.00 60 1008.6
20260831171554 20 176 3.2 14.5 0.00 0.00 0.00 60 1008.7
20260831170048 18 176 6.4 19.3 0.00 0.00 0.00 62 1008.9
20260831164543 19 176 0.0 6.4 0.00 0.00 0.00 62 1009.1
20260831163038 18 178 0.0 3.2 0.00 0.00 0.00 64 1009.2
20260831161533 17 178 0.0 4.8 0.00 0.00 0.00 68 1009.3
20260831160029 16 176 0.0 6.4 0.00 0.00 0.00 72 1009.3
20260831154525 15 175 0.0 1.6 0.00 0.00 0.00 75 1009.4
20260831153020 14 177 0.0 1.6 0.00 0.00 0.00 78 1009.6
20260831151516 15 177 0.0 0.0 0.00 0.00 0.00 77 1009.6
20260831150012 14 177 0.0 0.0 0.00 0.00 0.00 80 1009.7
20260831144507 13 177 0.0 0.0 0.00 0.00 0.00 82 1009.6
20260831143002 12 177 0.0 1.6 0.00 0.00 0.00 82 1009.7
20260831141608 -17 0.0 0.0 0.00 0.00 0.00 1009.7